Time,TemperatureF,DewpointF,PressureIn,WindDirection,WindDirectionDegrees,WindSpeedMPH,WindSpeedGustMPH,Humidity,HourlyPrecipIn,Conditions,Clouds,dailyrainin,SoftwareType,DateUTC
2013-08-26 00:00:00,76.2,68.8,30.12,SSE,158,3.0,6.0,78,0.00,,,0.00,VWS V14.00,2013-08-26 05:00:00,
2013-08-26 00:05:00,76.2,68.8,30.12,SSE,158,2.0,6.0,78,0.00,,,0.00,VWS V14.00,2013-08-26 05:05:00,
2013-08-26 00:10:00,76.0,68.7,30.12,SSE,158,1.0,5.0,78,0.00,,,0.00,VWS V14.00,2013-08-26 05:10:00,
2013-08-26 00:15:00,75.9,68.9,30.12,SSE,158,0.0,3.0,79,0.00,,,0.00,VWS V14.00,2013-08-26 05:15:00,
2013-08-26 00:20:00,75.7,68.7,30.11,SSE,158,1.0,4.0,79,0.00,,,0.00,VWS V14.00,2013-08-26 05:20:00,
2013-08-26 00:25:00,75.6,68.6,30.11,SSE,158,3.0,5.0,79,0.00,,,0.00,VWS V14.00,2013-08-26 05:25:00,
2013-08-26 00:30:00,75.5,68.5,30.11,SSE,158,2.0,5.0,79,0.00,,,0.00,VWS V14.00,2013-08-26 05:30:00,
2013-08-26 00:35:00,75.3,68.7,30.11,SSE,158,2.0,5.0,80,0.00,,,0.00,VWS V14.00,2013-08-26 05:35:00,
2013-08-26 00:40:00,75.2,68.6,30.11,SSE,158,3.0,7.0,80,0.00,,,0.00,VWS V14.00,2013-08-26 05:40:00,
2013-08-26 00:45:00,75.1,68.5,30.12,SSE,158,1.0,5.0,80,0.00,,,0.00,VWS V14.00,2013-08-26 05:45:00,
2013-08-26 00:50:00,75.0,68.8,30.12,SSE,158,2.0,6.0,81,0.00,,,0.00,VWS V14.00,2013-08-26 05:50:00,
2013-08-26 00:55:00,74.9,68.7,30.12,SSE,158,2.0,5.0,81,0.00,,,0.00,VWS V14.00,2013-08-26 05:55:00,
2013-08-26 01:00:00,74.9,68.7,30.12,SSE,158,3.0,6.0,81,0.00,,,0.00,VWS V14.00,2013-08-26 06:00:00,
2013-08-26 01:05:00,74.9,68.7,30.11,SSE,158,3.0,6.0,81,0.00,,,0.00,VWS V14.00,2013-08-26 06:05:00,
2013-08-26 01:10:00,74.8,68.6,30.11,SSE,158,3.0,7.0,81,0.00,,,0.00,VWS V14.00,2013-08-26 06:10:00,
2013-08-26 01:15:00,74.8,68.6,30.11,SSE,158,3.0,6.0,81,0.00,,,0.00,VWS V14.00,2013-08-26 06:15:00,
2013-08-26 01:20:00,74.7,68.8,30.11,SSE,158,2.0,6.0,82,0.00,,,0.00,VWS V14.00,2013-08-26 06:20:00,
2013-08-26 01:25:00,74.6,68.8,30.11,SSE,158,1.0,5.0,82,0.00,,,0.00,VWS V14.00,2013-08-26 06:25:00,
2013-08-26 01:30:00,74.6,68.8,30.11,South,180,3.0,6.0,82,0.00,,,0.00,VWS V14.00,2013-08-26 06:30:00,
2013-08-26 01:35:00,74.7,68.8,30.11,South,180,2.0,6.0,82,0.00,,,0.00,VWS V14.00,2013-08-26 06:35:00,
2013-08-26 01:40:00,74.8,68.9,30.11,SSE,158,2.0,5.0,82,0.00,,,0.00,VWS V14.00,2013-08-26 06:40:00,
2013-08-26 01:45:00,74.7,68.8,30.11,SSE,158,3.0,6.0,82,0.00,,,0.00,VWS V14.00,2013-08-26 06:45:00,
2013-08-26 01:50:00,74.6,68.8,30.11,SSE,158,1.0,4.0,82,0.00,,,0.00,VWS V14.00,2013-08-26 06:50:00,
2013-08-26 01:55:00,74.4,68.6,30.11,SSE,158,2.0,5.0,82,0.00,,,0.00,VWS V14.00,2013-08-26 06:55:00,
2013-08-26 02:00:00,74.3,68.4,30.10,SSE,158,2.0,6.0,82,0.00,,,0.00,VWS V14.00,2013-08-26 07:00:00,
2013-08-26 02:05:00,74.2,68.4,30.11,SSE,158,2.0,6.0,82,0.00,,,0.00,VWS V14.00,2013-08-26 07:05:00,
2013-08-26 02:10:00,74.1,68.6,30.10,SSE,158,2.0,7.0,83,0.00,,,0.00,VWS V14.00,2013-08-26 07:10:00,
2013-08-26 02:15:00,74.0,68.5,30.10,SSE,158,1.0,6.0,83,0.00,,,0.00,VWS V14.00,2013-08-26 07:15:00,
2013-08-26 02:20:00,73.9,68.4,30.10,SSE,158,1.0,5.0,83,0.00,,,0.00,VWS V14.00,2013-08-26 07:20:00,
2013-08-26 02:25:00,73.8,68.3,30.10,SSE,158,2.0,6.0,83,0.00,,,0.00,VWS V14.00,2013-08-26 07:25:00,
2013-08-26 02:30:00,73.7,68.2,30.10,South,180,3.0,7.0,83,0.00,,,0.00,VWS V14.00,2013-08-26 07:30:00,
2013-08-26 02:35:00,73.8,68.3,30.10,SSE,158,3.0,7.0,83,0.00,,,0.00,VWS V14.00,2013-08-26 07:35:00,
2013-08-26 02:40:00,73.9,68.4,30.10,South,180,3.0,7.0,83,0.00,,,0.00,VWS V14.00,2013-08-26 07:40:00,
2013-08-26 02:45:00,74.0,68.5,30.10,South,180,2.0,7.0,83,0.00,,,0.00,VWS V14.00,2013-08-26 07:45:00,
2013-08-26 02:50:00,74.0,68.5,30.10,South,180,1.0,5.0,83,0.00,,,0.00,VWS V14.00,2013-08-26 07:50:00,
2013-08-26 02:55:00,74.0,68.5,30.10,South,180,2.0,6.0,83,0.00,,,0.00,VWS V14.00,2013-08-26 07:55:00,
2013-08-26 03:00:00,73.9,68.4,30.10,South,180,1.0,6.0,83,0.00,,,0.00,VWS V14.00,2013-08-26 08:00:00,
2013-08-26 03:05:00,73.8,68.3,30.10,South,180,1.0,7.0,83,0.00,,,0.00,VWS V14.00,2013-08-26 08:05:00,
2013-08-26 03:10:00,73.7,68.2,30.10,South,180,3.0,7.0,83,0.00,,,0.00,VWS V14.00,2013-08-26 08:10:00,
2013-08-26 03:15:00,73.7,68.6,30.10,South,180,3.0,8.0,84,0.00,,,0.00,VWS V14.00,2013-08-26 08:15:00,
2013-08-26 03:20:00,73.7,68.6,30.10,South,180,3.0,6.0,84,0.00,,,0.00,VWS V14.00,2013-08-26 08:20:00,
2013-08-26 03:25:00,73.6,68.5,30.10,South,180,3.0,7.0,84,0.00,,,0.00,VWS V14.00,2013-08-26 08:25:00,
2013-08-26 03:30:00,73.5,68.4,30.10,South,180,2.0,7.0,84,0.00,,,0.00,VWS V14.00,2013-08-26 08:30:00,
2013-08-26 03:35:00,73.4,68.3,30.10,South,180,1.0,7.0,84,0.00,,,0.00,VWS V14.00,2013-08-26 08:35:00,
2013-08-26 03:40:00,73.4,68.6,30.10,South,180,2.0,8.0,85,0.00,,,0.00,VWS V14.00,2013-08-26 08:40:00,
2013-08-26 03:45:00,73.3,68.5,30.10,South,180,3.0,7.0,85,0.00,,,0.00,VWS V14.00,2013-08-26 08:45:00,
2013-08-26 03:50:00,73.3,68.5,30.10,South,180,2.0,6.0,85,0.00,,,0.00,VWS V14.00,2013-08-26 08:50:00,
2013-08-26 03:55:00,73.2,68.4,30.10,South,180,3.0,7.0,85,0.00,,,0.00,VWS V14.00,2013-08-26 08:55:00,
2013-08-26 04:00:00,73.1,68.3,30.10,South,180,5.0,7.0,85,0.00,,,0.00,VWS V14.00,2013-08-26 09:00:00,
2013-08-26 04:05:00,73.1,68.3,30.09,South,180,6.0,9.0,85,0.00,,,0.00,VWS V14.00,2013-08-26 09:05:00,
2013-08-26 04:10:00,73.0,68.2,30.09,South,180,5.0,10.0,85,0.00,,,0.00,VWS V14.00,2013-08-26 09:10:00,
2013-08-26 04:15:00,73.0,68.6,30.09,South,180,5.0,9.0,86,0.00,,,0.00,VWS V14.00,2013-08-26 09:15:00,
2013-08-26 04:20:00,73.0,68.6,30.10,South,180,5.0,8.0,86,0.00,,,0.00,VWS V14.00,2013-08-26 09:20:00,
2013-08-26 04:25:00,73.0,68.6,30.09,South,180,5.0,8.0,86,0.00,,,0.00,VWS V14.00,2013-08-26 09:25:00,
2013-08-26 04:30:00,73.0,68.6,30.09,South,180,5.0,8.0,86,0.00,,,0.00,VWS V14.00,2013-08-26 09:30:00,
2013-08-26 04:35:00,73.0,68.6,30.09,South,180,4.0,9.0,86,0.00,,,0.00,VWS V14.00,2013-08-26 09:35:00,
2013-08-26 04:40:00,72.9,68.5,30.09,South,180,4.0,11.0,86,0.00,,,0.00,VWS V14.00,2013-08-26 09:40:00,
2013-08-26 04:45:00,72.9,68.5,30.09,South,180,5.0,10.0,86,0.00,,,0.00,VWS V14.00,2013-08-26 09:45:00,
2013-08-26 04:50:00,72.8,68.4,30.09,South,180,3.0,8.0,86,0.00,,,0.00,VWS V14.00,2013-08-26 09:50:00,
2013-08-26 04:55:00,72.8,68.4,30.10,South,180,3.0,7.0,86,0.00,,,0.00,VWS V14.00,2013-08-26 09:55:00,
2013-08-26 05:00:00,72.7,68.3,30.10,South,180,3.0,7.0,86,0.00,,,0.00,VWS V14.00,2013-08-26 10:00:00,
2013-08-26 05:05:00,72.6,68.5,30.10,South,180,1.0,5.0,87,0.00,,,0.00,VWS V14.00,2013-08-26 10:05:00,
2013-08-26 05:10:00,72.5,68.4,30.10,SSW,202,1.0,4.0,87,0.00,,,0.00,VWS V14.00,2013-08-26 10:10:00,
2013-08-26 05:15:00,72.3,68.2,30.11,South,180,2.0,7.0,87,0.00,,,0.00,VWS V14.00,2013-08-26 10:15:00,
2013-08-26 05:20:00,72.2,68.1,30.11,SSW,202,2.0,6.0,87,0.00,,,0.00,VWS V14.00,2013-08-26 10:20:00,
2013-08-26 05:25:00,72.1,68.3,30.11,SSW,202,0.0,2.0,88,0.00,,,0.00,VWS V14.00,2013-08-26 10:25:00,
2013-08-26 05:30:00,72.0,68.3,30.11,SSW,202,0.0,4.0,88,0.00,,,0.00,VWS V14.00,2013-08-26 10:30:00,
2013-08-26 05:35:00,71.9,68.2,30.11,SSW,202,1.0,4.0,88,0.00,,,0.00,VWS V14.00,2013-08-26 10:35:00,
2013-08-26 05:40:00,71.8,68.1,30.10,SSW,202,1.0,5.0,88,0.00,,,0.00,VWS V14.00,2013-08-26 10:40:00,
2013-08-26 05:45:00,71.7,68.0,30.10,SSW,202,1.0,4.0,88,0.00,,,0.00,VWS V14.00,2013-08-26 10:45:00,
2013-08-26 05:50:00,71.6,67.9,30.10,South,180,1.0,6.0,88,0.00,,,0.00,VWS V14.00,2013-08-26 10:50:00,
2013-08-26 05:55:00,71.5,68.1,30.10,South,180,2.0,5.0,89,0.00,,,0.00,VWS V14.00,2013-08-26 10:55:00,
2013-08-26 06:00:00,71.4,68.0,30.10,South,180,2.0,6.0,89,0.00,,,0.00,VWS V14.00,2013-08-26 11:00:00,
2013-08-26 06:05:00,71.4,68.0,30.11,SSW,202,1.0,6.0,89,0.00,,,0.00,VWS V14.00,2013-08-26 11:05:00,
2013-08-26 06:10:00,71.3,67.9,30.11,SSW,202,0.0,3.0,89,0.00,,,0.00,VWS V14.00,2013-08-26 11:10:00,
2013-08-26 06:15:00,71.3,67.9,30.11,SSW,202,0.0,3.0,89,0.00,,,0.00,VWS V14.00,2013-08-26 11:15:00,
2013-08-26 06:20:00,71.1,67.7,30.11,South,180,1.0,5.0,89,0.00,,,0.00,VWS V14.00,2013-08-26 11:20:00,
2013-08-26 06:25:00,71.0,67.6,30.11,SSW,202,1.0,6.0,89,0.00,,,0.00,VWS V14.00,2013-08-26 11:25:00,
2013-08-26 06:30:00,71.0,67.9,30.11,SSW,202,1.0,5.0,90,0.00,,,0.00,VWS V14.00,2013-08-26 11:30:00,
2013-08-26 06:35:00,70.9,67.5,30.11,SSW,202,0.0,3.0,89,0.00,,,0.00,VWS V14.00,2013-08-26 11:35:00,
2013-08-26 06:40:00,70.8,67.4,30.11,SSW,202,0.0,1.0,89,0.00,,,0.00,VWS V14.00,2013-08-26 11:40:00,
2013-08-26 06:45:00,70.6,67.5,30.11,SSW,202,0.0,1.0,90,0.00,,,0.00,VWS V14.00,2013-08-26 11:45:00,
2013-08-26 06:50:00,70.5,67.4,30.11,South,180,0.0,3.0,90,0.00,,,0.00,VWS V14.00,2013-08-26 11:50:00,
2013-08-26 06:55:00,70.4,67.3,30.12,SSW,202,0.0,2.0,90,0.00,,,0.00,VWS V14.00,2013-08-26 11:55:00,
2013-08-26 07:00:00,70.3,67.6,30.12,South,180,0.0,2.0,91,0.00,,,0.00,VWS V14.00,2013-08-26 12:00:00,
2013-08-26 07:05:00,70.3,67.6,30.12,South,180,0.0,5.0,91,0.00,,,0.00,VWS V14.00,2013-08-26 12:05:00,
2013-08-26 07:10:00,70.3,67.6,30.12,South,180,1.0,4.0,91,0.00,,,0.00,VWS V14.00,2013-08-26 12:10:00,
2013-08-26 07:15:00,70.3,67.6,30.13,SSW,202,0.0,3.0,91,0.00,,,0.00,VWS V14.00,2013-08-26 12:15:00,
2013-08-26 07:20:00,70.4,67.7,30.12,South,180,0.0,3.0,91,0.00,,,0.00,VWS V14.00,2013-08-26 12:20:00,
2013-08-26 07:25:00,70.4,67.7,30.13,South,180,1.0,5.0,91,0.00,,,0.00,VWS V14.00,2013-08-26 12:25:00,
2013-08-26 07:30:00,70.6,68.2,30.13,South,180,1.0,4.0,92,0.00,,,0.00,VWS V14.00,2013-08-26 12:30:00,
2013-08-26 07:35:00,70.9,68.5,30.13,South,180,3.0,6.0,92,0.00,,,0.00,VWS V14.00,2013-08-26 12:35:00,
2013-08-26 07:40:00,71.3,68.5,30.13,South,180,2.0,6.0,91,0.00,,,0.00,VWS V14.00,2013-08-26 12:40:00,
2013-08-26 07:45:00,71.6,68.8,30.13,South,180,3.0,7.0,91,0.00,,,0.00,VWS V14.00,2013-08-26 12:45:00,
2013-08-26 07:50:00,71.9,68.8,30.13,South,180,3.0,7.0,90,0.00,,,0.00,VWS V14.00,2013-08-26 12:50:00,
2013-08-26 07:55:00,72.1,69.0,30.13,South,180,3.0,6.0,90,0.00,,,0.00,VWS V14.00,2013-08-26 12:55:00,
2013-08-26 08:00:00,72.5,69.1,30.13,South,180,2.0,6.0,89,0.00,,,0.00,VWS V14.00,2013-08-26 13:00:00,
2013-08-26 08:05:00,72.9,69.5,30.13,South,180,3.0,8.0,89,0.00,,,0.00,VWS V14.00,2013-08-26 13:05:00,
2013-08-26 08:10:00,73.2,69.4,30.13,South,180,3.0,10.0,88,0.00,,,0.00,VWS V14.00,2013-08-26 13:10:00,
2013-08-26 08:15:00,73.6,69.8,30.13,SSW,202,3.0,8.0,88,0.00,,,0.00,VWS V14.00,2013-08-26 13:15:00,
2013-08-26 08:20:00,73.9,69.8,30.13,SW,225,3.0,9.0,87,0.00,,,0.00,VWS V14.00,2013-08-26 13:20:00,
2013-08-26 08:25:00,74.3,70.2,30.13,SW,225,3.0,9.0,87,0.00,,,0.00,VWS V14.00,2013-08-26 13:25:00,
2013-08-26 08:30:00,74.7,70.2,30.13,South,180,3.0,8.0,86,0.00,,,0.00,VWS V14.00,2013-08-26 13:30:00,
2013-08-26 08:35:00,75.2,70.4,30.13,SW,225,3.0,13.0,85,0.00,,,0.00,VWS V14.00,2013-08-26 13:35:00,
2013-08-26 08:40:00,75.7,71.2,30.13,SW,225,3.0,9.0,86,0.00,,,0.00,VWS V14.00,2013-08-26 13:40:00,
2013-08-26 08:45:00,76.2,71.4,30.13,SSW,202,4.0,12.0,85,0.00,,,0.00,VWS V14.00,2013-08-26 13:45:00,
2013-08-26 08:50:00,76.7,71.2,30.13,SSW,202,4.0,9.0,83,0.00,,,0.00,VWS V14.00,2013-08-26 13:50:00,
2013-08-26 08:55:00,77.2,71.6,30.13,SSW,202,2.0,9.0,83,0.00,,,0.00,VWS V14.00,2013-08-26 13:55:00,
2013-08-26 09:00:00,77.6,71.3,30.13,SSW,202,4.0,10.0,81,0.00,,,0.00,VWS V14.00,2013-08-26 14:00:00,
2013-08-26 09:05:00,78.0,71.3,30.13,SW,225,4.0,14.0,80,0.00,,,0.00,VWS V14.00,2013-08-26 14:05:00,
2013-08-26 09:10:00,78.5,71.8,30.13,SSW,202,3.0,14.0,80,0.00,,,0.00,VWS V14.00,2013-08-26 14:10:00,
2013-08-26 09:15:00,79.0,72.3,30.13,SSW,202,3.0,9.0,80,0.00,,,0.00,VWS V14.00,2013-08-26 14:15:00,
2013-08-26 09:20:00,79.6,71.8,30.13,SW,225,6.0,12.0,77,0.00,,,0.00,VWS V14.00,2013-08-26 14:20:00,
2013-08-26 09:25:00,80.3,72.4,30.13,SSW,202,5.0,16.0,77,0.00,,,0.00,VWS V14.00,2013-08-26 14:25:00,
2013-08-26 09:30:00,80.9,72.6,30.13,SSW,202,5.0,16.0,76,0.00,,,0.00,VWS V14.00,2013-08-26 14:30:00,
2013-08-26 09:35:00,81.6,72.9,30.13,SW,225,3.0,7.0,75,0.00,,,0.00,VWS V14.00,2013-08-26 14:35:00,
2013-08-26 09:40:00,82.2,73.1,30.13,SW,225,4.0,10.0,74,0.00,,,0.00,VWS V14.00,2013-08-26 14:40:00,
2013-08-26 09:45:00,82.8,72.4,30.13,SW,225,6.0,13.0,71,0.00,,,0.00,VWS V14.00,2013-08-26 14:45:00,
2013-08-26 09:50:00,83.3,73.3,30.12,SSW,202,5.0,14.0,72,0.00,,,0.00,VWS V14.00,2013-08-26 14:50:00,
2013-08-26 09:55:00,83.7,72.9,30.13,SW,225,6.0,12.0,70,0.00,,,0.00,VWS V14.00,2013-08-26 14:55:00,
2013-08-26 10:00:00,84.2,72.9,30.13,SW,225,5.0,14.0,69,0.00,,,0.00,VWS V14.00,2013-08-26 15:00:00,
2013-08-26 10:05:00,84.7,73.8,30.13,SSW,202,5.0,17.0,70,0.00,,,0.00,VWS V14.00,2013-08-26 15:05:00,
2013-08-26 10:10:00,85.1,73.4,30.13,SW,225,4.0,17.0,68,0.00,,,0.00,VWS V14.00,2013-08-26 15:10:00,
2013-08-26 10:15:00,85.3,73.1,30.13,SW,225,4.0,14.0,67,0.00,,,0.00,VWS V14.00,2013-08-26 15:15:00,
2013-08-26 10:20:00,85.7,73.5,30.13,SW,225,8.0,19.0,67,0.00,,,0.00,VWS V14.00,2013-08-26 15:20:00,
2013-08-26 10:25:00,86.3,73.2,30.13,WSW,248,3.0,13.0,65,0.00,,,0.00,VWS V14.00,2013-08-26 15:25:00,
2013-08-26 10:30:00,86.4,72.3,30.13,SW,225,5.0,16.0,63,0.00,,,0.00,VWS V14.00,2013-08-26 15:30:00,
2013-08-26 10:35:00,86.2,72.6,30.13,SW,225,5.0,14.0,64,0.00,,,0.00,VWS V14.00,2013-08-26 15:35:00,
2013-08-26 10:40:00,86.5,73.3,30.13,SW,225,4.0,13.0,65,0.00,,,0.00,VWS V14.00,2013-08-26 15:40:00,
2013-08-26 10:45:00,86.9,72.3,30.13,SW,225,4.0,16.0,62,0.00,,,0.00,VWS V14.00,2013-08-26 15:45:00,
2013-08-26 10:50:00,87.5,72.9,30.12,SW,225,5.0,14.0,62,0.00,,,0.00,VWS V14.00,2013-08-26 15:50:00,
2013-08-26 10:55:00,88.1,73.0,30.12,SW,225,4.0,10.0,61,0.00,,,0.00,VWS V14.00,2013-08-26 15:55:00,
2013-08-26 11:00:00,88.7,73.5,30.12,SW,225,4.0,10.0,61,0.00,,,0.00,VWS V14.00,2013-08-26 16:00:00,
2013-08-26 11:05:00,89.2,73.0,30.12,SW,225,5.0,17.0,59,0.00,,,0.00,VWS V14.00,2013-08-26 16:05:00,
2013-08-26 11:10:00,89.7,75.0,30.12,WSW,248,4.0,14.0,62,0.00,,,0.00,VWS V14.00,2013-08-26 16:10:00,
2013-08-26 11:15:00,90.0,73.8,30.12,SW,225,4.0,13.0,59,0.00,,,0.00,VWS V14.00,2013-08-26 16:15:00,
2013-08-26 11:20:00,90.5,74.2,30.12,SW,225,1.0,13.0,59,0.00,,,0.00,VWS V14.00,2013-08-26 16:20:00,
2013-08-26 11:25:00,91.0,74.2,30.12,SW,225,4.0,15.0,58,0.00,,,0.00,VWS V14.00,2013-08-26 16:25:00,
2013-08-26 11:30:00,91.1,75.3,30.12,SW,225,4.0,15.0,60,0.00,,,0.00,VWS V14.00,2013-08-26 16:30:00,
2013-08-26 11:35:00,91.4,73.0,30.12,SW,225,4.0,14.0,55,0.00,,,0.00,VWS V14.00,2013-08-26 16:35:00,
2013-08-26 11:40:00,91.9,74.0,30.12,WSW,248,3.0,14.0,56,0.00,,,0.00,VWS V14.00,2013-08-26 16:40:00,
2013-08-26 11:45:00,92.0,73.0,30.11,SW,225,3.0,12.0,54,0.00,,,0.00,VWS V14.00,2013-08-26 16:45:00,
2013-08-26 11:50:00,92.3,73.3,30.11,SW,225,4.0,14.0,54,0.00,,,0.00,VWS V14.00,2013-08-26 16:50:00,
2013-08-26 11:55:00,92.8,73.2,30.11,SW,225,4.0,11.0,53,0.00,,,0.00,VWS V14.00,2013-08-26 16:55:00,
2013-08-26 12:00:00,93.1,74.0,30.11,WSW,248,3.0,10.0,54,0.00,,,0.00,VWS V14.00,2013-08-26 17:00:00,
2013-08-26 12:05:00,93.6,74.5,30.11,SW,225,1.0,7.0,54,0.00,,,0.00,VWS V14.00,2013-08-26 17:05:00,
2013-08-26 12:10:00,93.4,72.6,30.11,SSW,202,3.0,9.0,51,0.00,,,0.00,VWS V14.00,2013-08-26 17:10:00,
2013-08-26 12:15:00,93.0,72.8,30.11,SW,225,4.0,15.0,52,0.00,,,0.00,VWS V14.00,2013-08-26 17:15:00,
2013-08-26 12:20:00,92.6,73.0,30.11,SW,225,4.0,15.0,53,0.00,,,0.00,VWS V14.00,2013-08-26 17:20:00,
2013-08-26 12:25:00,92.9,74.4,30.11,SW,225,1.0,4.0,55,0.00,,,0.00,VWS V14.00,2013-08-26 17:25:00,
2013-08-26 12:30:00,93.5,74.4,30.10,WSW,248,1.0,4.0,54,0.00,,,0.00,VWS V14.00,2013-08-26 17:30:00,
2013-08-26 12:35:00,94.1,74.9,30.10,SW,225,3.0,12.0,54,0.00,,,0.00,VWS V14.00,2013-08-26 17:35:00,
2013-08-26 12:40:00,94.5,74.7,30.10,SW,225,2.0,10.0,53,0.00,,,0.00,VWS V14.00,2013-08-26 17:40:00,
2013-08-26 12:45:00,94.0,73.1,30.10,SW,225,7.0,18.0,51,0.00,,,0.00,VWS V14.00,2013-08-26 17:45:00,
2013-08-26 12:50:00,93.7,74.6,30.10,SW,225,3.0,11.0,54,0.00,,,0.00,VWS V14.00,2013-08-26 17:50:00,
2013-08-26 12:55:00,94.2,73.9,30.10,WSW,248,1.0,5.0,52,0.00,,,0.00,VWS V14.00,2013-08-26 17:55:00,
2013-08-26 13:00:00,94.4,72.3,30.10,SSW,202,2.0,7.0,49,0.00,,,0.00,VWS V14.00,2013-08-26 18:00:00,
2013-08-26 13:05:00,94.1,73.2,30.09,SW,225,4.0,12.0,51,0.00,,,0.00,VWS V14.00,2013-08-26 18:05:00,
2013-08-26 13:10:00,94.0,74.3,30.09,SW,225,3.0,13.0,53,0.00,,,0.00,VWS V14.00,2013-08-26 18:10:00,
2013-08-26 13:15:00,94.7,76.6,30.09,West,270,4.0,15.0,56,0.00,,,0.00,VWS V14.00,2013-08-26 18:15:00,
2013-08-26 13:20:00,95.4,75.0,30.09,West,270,2.0,14.0,52,0.00,,,0.00,VWS V14.00,2013-08-26 18:20:00,
2013-08-26 13:25:00,95.4,72.6,30.09,SSW,202,4.0,11.0,48,0.00,,,0.00,VWS V14.00,2013-08-26 18:25:00,
2013-08-26 13:30:00,95.3,73.1,30.08,SW,225,5.0,11.0,49,0.00,,,0.00,VWS V14.00,2013-08-26 18:30:00,
2013-08-26 13:35:00,95.5,73.3,30.08,WSW,248,2.0,10.0,49,0.00,,,0.00,VWS V14.00,2013-08-26 18:35:00,
2013-08-26 13:40:00,95.6,73.4,30.08,South,180,1.0,9.0,49,0.00,,,0.00,VWS V14.00,2013-08-26 18:40:00,
2013-08-26 13:45:00,95.3,74.3,30.08,SW,225,3.0,9.0,51,0.00,,,0.00,VWS V14.00,2013-08-26 18:45:00,
2013-08-26 13:50:00,95.5,73.3,30.07,SSW,202,5.0,13.0,49,0.00,,,0.00,VWS V14.00,2013-08-26 18:50:00,
2013-08-26 13:55:00,95.8,73.0,30.07,SW,225,3.0,13.0,48,0.00,,,0.00,VWS V14.00,2013-08-26 18:55:00,
2013-08-26 14:00:00,95.8,74.8,30.07,SW,225,3.0,11.0,51,0.00,,,0.00,VWS V14.00,2013-08-26 19:00:00,
2013-08-26 14:05:00,95.6,74.6,30.07,SW,225,2.0,15.0,51,0.00,,,0.00,VWS V14.00,2013-08-26 19:05:00,
2013-08-26 14:10:00,95.7,72.3,30.07,South,180,3.0,9.0,47,0.00,,,0.00,VWS V14.00,2013-08-26 19:10:00,
2013-08-26 14:15:00,95.3,71.9,30.07,SW,225,3.0,10.0,47,0.00,,,0.00,VWS V14.00,2013-08-26 19:15:00,
2013-08-26 14:20:00,95.4,72.0,30.06,SW,225,1.0,5.0,47,0.00,,,0.00,VWS V14.00,2013-08-26 19:20:00,
2013-08-26 14:25:00,96.0,73.2,30.06,SSW,202,1.0,8.0,48,0.00,,,0.00,VWS V14.00,2013-08-26 19:25:00,
2013-08-26 14:30:00,95.6,72.8,30.06,SSW,202,3.0,8.0,48,0.00,,,0.00,VWS V14.00,2013-08-26 19:30:00,
2013-08-26 14:35:00,95.6,72.8,30.06,SSW,202,2.0,8.0,48,0.00,,,0.00,VWS V14.00,2013-08-26 19:35:00,
2013-08-26 14:40:00,95.7,72.9,30.06,SW,225,3.0,14.0,48,0.00,,,0.00,VWS V14.00,2013-08-26 19:40:00,
2013-08-26 14:45:00,95.6,70.9,30.05,SSW,202,3.0,9.0,45,0.00,,,0.00,VWS V14.00,2013-08-26 19:45:00,
2013-08-26 14:50:00,95.2,71.8,30.05,SSW,202,2.0,8.0,47,0.00,,,0.00,VWS V14.00,2013-08-26 19:50:00,
2013-08-26 14:55:00,94.8,72.7,30.05,SSW,202,1.0,6.0,49,0.00,,,0.00,VWS V14.00,2013-08-26 19:55:00,
2013-08-26 15:00:00,94.6,73.1,30.05,SW,225,4.0,11.0,50,0.00,,,0.00,VWS V14.00,2013-08-26 20:00:00,
2013-08-26 15:05:00,94.0,71.9,30.05,SW,225,3.0,11.0,49,0.00,,,0.00,VWS V14.00,2013-08-26 20:05:00,
2013-08-26 15:10:00,93.8,72.4,30.05,SSW,202,3.0,12.0,50,0.00,,,0.00,VWS V14.00,2013-08-26 20:10:00,
2013-08-26 15:15:00,93.8,73.5,30.05,South,180,1.0,4.0,52,0.00,,,0.00,VWS V14.00,2013-08-26 20:15:00,
2013-08-26 15:20:00,94.1,72.6,30.05,South,180,2.0,9.0,50,0.00,,,0.00,VWS V14.00,2013-08-26 20:20:00,
2013-08-26 15:25:00,93.5,71.5,30.05,South,180,7.0,12.0,49,0.00,,,0.00,VWS V14.00,2013-08-26 20:25:00,
2013-08-26 15:30:00,93.1,72.3,30.05,SSE,158,3.0,10.0,51,0.00,,,0.00,VWS V14.00,2013-08-26 20:30:00,
2013-08-26 15:35:00,92.8,72.0,30.04,SW,225,2.0,9.0,51,0.00,,,0.00,VWS V14.00,2013-08-26 20:35:00,
2013-08-26 15:40:00,92.9,72.1,30.04,South,180,4.0,10.0,51,0.00,,,0.00,VWS V14.00,2013-08-26 20:40:00,
2013-08-26 15:45:00,92.6,73.0,30.04,SSW,202,3.0,11.0,53,0.00,,,0.00,VWS V14.00,2013-08-26 20:45:00,
2013-08-26 15:50:00,92.5,72.3,30.04,South,180,5.0,12.0,52,0.00,,,0.00,VWS V14.00,2013-08-26 20:50:00,
2013-08-26 15:55:00,91.9,72.9,30.04,SSW,202,3.0,10.0,54,0.00,,,0.00,VWS V14.00,2013-08-26 20:55:00,
2013-08-26 16:00:00,91.9,72.3,30.03,SSW,202,3.0,11.0,53,0.00,,,0.00,VWS V14.00,2013-08-26 21:00:00,
2013-08-26 16:05:00,91.9,72.3,30.03,South,180,2.0,6.0,53,0.00,,,0.00,VWS V14.00,2013-08-26 21:05:00,
2013-08-26 16:10:00,91.7,72.7,30.03,SW,225,4.0,11.0,54,0.00,,,0.00,VWS V14.00,2013-08-26 21:10:00,
2013-08-26 16:15:00,91.5,72.5,30.03,SW,225,2.0,8.0,54,0.00,,,0.00,VWS V14.00,2013-08-26 21:15:00,
2013-08-26 16:20:00,91.4,73.0,30.03,SW,225,1.0,7.0,55,0.00,,,0.00,VWS V14.00,2013-08-26 21:20:00,
2013-08-26 16:25:00,91.7,73.2,30.03,SW,225,3.0,9.0,55,0.00,,,0.00,VWS V14.00,2013-08-26 21:25:00,
2013-08-26 16:30:00,92.1,72.5,30.03,SW,225,2.0,11.0,53,0.00,,,0.00,VWS V14.00,2013-08-26 21:30:00,
2013-08-26 16:35:00,92.2,72.1,30.02,SSW,202,2.0,11.0,52,0.00,,,0.00,VWS V14.00,2013-08-26 21:35:00,
2013-08-26 16:40:00,92.1,72.0,30.02,SW,225,2.0,9.0,52,0.00,,,0.00,VWS V14.00,2013-08-26 21:40:00,
2013-08-26 16:45:00,92.0,72.4,30.02,SSW,202,4.0,8.0,53,0.00,,,0.00,VWS V14.00,2013-08-26 21:45:00,
2013-08-26 16:50:00,91.7,71.6,30.02,SSW,202,3.0,7.0,52,0.00,,,0.00,VWS V14.00,2013-08-26 21:50:00,
2013-08-26 16:55:00,91.1,72.2,30.03,SSW,202,4.0,8.0,54,0.00,,,0.00,VWS V14.00,2013-08-26 21:55:00,
2013-08-26 17:00:00,91.0,72.6,30.03,SW,225,1.0,7.0,55,0.00,,,0.00,VWS V14.00,2013-08-26 22:00:00,
2013-08-26 17:05:00,90.8,71.3,30.03,SSW,202,3.0,9.0,53,0.00,,,0.00,VWS V14.00,2013-08-26 22:05:00,
2013-08-26 17:10:00,90.7,72.9,30.03,SSW,202,2.0,7.0,56,0.00,,,0.00,VWS V14.00,2013-08-26 22:10:00,
2013-08-26 17:15:00,90.8,72.4,30.02,SW,225,2.0,11.0,55,0.00,,,0.00,VWS V14.00,2013-08-26 22:15:00,
2013-08-26 17:20:00,90.7,71.2,30.02,SW,225,3.0,13.0,53,0.00,,,0.00,VWS V14.00,2013-08-26 22:20:00,
2013-08-26 17:25:00,90.7,71.8,30.02,South,180,2.0,7.0,54,0.00,,,0.00,VWS V14.00,2013-08-26 22:25:00,
2013-08-26 17:30:00,90.8,71.9,30.02,South,180,5.0,12.0,54,0.00,,,0.00,VWS V14.00,2013-08-26 22:30:00,
2013-08-26 17:35:00,90.8,72.4,30.02,SSW,202,3.0,8.0,55,0.00,,,0.00,VWS V14.00,2013-08-26 22:35:00,
2013-08-26 17:40:00,90.6,71.7,30.03,South,180,4.0,12.0,54,0.00,,,0.00,VWS V14.00,2013-08-26 22:40:00,
2013-08-26 17:45:00,90.3,72.5,30.03,South,180,4.0,8.0,56,0.00,,,0.00,VWS V14.00,2013-08-26 22:45:00,
2013-08-26 17:50:00,90.0,72.2,30.02,South,180,7.0,12.0,56,0.00,,,0.00,VWS V14.00,2013-08-26 22:50:00,
2013-08-26 17:55:00,89.7,71.9,30.02,SSW,202,4.0,12.0,56,0.00,,,0.00,VWS V14.00,2013-08-26 22:55:00,
2013-08-26 18:00:00,89.2,71.5,30.02,SSW,202,3.0,7.0,56,0.00,,,0.00,VWS V14.00,2013-08-26 23:00:00,
2013-08-26 18:05:00,88.8,72.1,30.03,SSW,202,4.0,10.0,58,0.00,,,0.00,VWS V14.00,2013-08-26 23:05:00,
2013-08-26 18:10:00,88.6,71.9,30.02,South,180,4.0,10.0,58,0.00,,,0.00,VWS V14.00,2013-08-26 23:10:00,
2013-08-26 18:15:00,88.6,72.4,30.02,South,180,4.0,9.0,59,0.00,,,0.00,VWS V14.00,2013-08-26 23:15:00,
2013-08-26 18:20:00,88.5,72.3,30.02,SSW,202,4.0,12.0,59,0.00,,,0.00,VWS V14.00,2013-08-26 23:20:00,
2013-08-26 18:25:00,88.4,72.3,30.02,South,180,5.0,10.0,59,0.00,,,0.00,VWS V14.00,2013-08-26 23:25:00,
2013-08-26 18:30:00,88.3,72.2,30.02,South,180,7.0,13.0,59,0.00,,,0.00,VWS V14.00,2013-08-26 23:30:00,
2013-08-26 18:35:00,88.1,72.0,30.02,South,180,6.0,12.0,59,0.00,,,0.00,VWS V14.00,2013-08-26 23:35:00,
2013-08-26 18:40:00,87.9,72.3,30.02,South,180,4.0,10.0,60,0.00,,,0.00,VWS V14.00,2013-08-26 23:40:00,
2013-08-26 18:45:00,87.7,72.6,30.02,South,180,4.0,12.0,61,0.00,,,0.00,VWS V14.00,2013-08-26 23:45:00,
2013-08-26 18:50:00,87.5,71.9,30.02,South,180,6.0,12.0,60,0.00,,,0.00,VWS V14.00,2013-08-26 23:50:00,
2013-08-26 18:55:00,87.3,72.2,30.02,South,180,4.0,11.0,61,0.00,,,0.00,VWS V14.00,2013-08-26 23:55:00,
2013-08-26 19:00:00,87.1,72.0,30.02,SSW,202,5.0,11.0,61,0.00,,,0.00,VWS V14.00,2013-08-27 00:00:00,
2013-08-26 19:07:00,87.1,72.0,30.02,SSW,202,5.0,11.0,61,0.00,,,0.00,VWS V14.00,2013-08-27 00:07:00,
2013-08-26 19:10:00,86.7,72.1,30.02,SSW,192,8.0,8.0,62,0.00,,,0.00,VWS V14.00,2013-08-27 00:10:00,
2013-08-26 19:12:00,86.6,72.0,30.02,SSE,153,4.0,8.0,62,0.00,,,0.00,VWS V14.00,2013-08-27 00:12:00,
2013-08-26 19:15:00,86.5,71.9,30.02,SSW,197,0.0,8.0,62,0.00,,,0.00,VWS V14.00,2013-08-27 00:15:00,
2013-08-26 19:17:00,86.4,72.3,30.02,South,189,3.0,5.0,63,0.00,,,0.00,VWS V14.00,2013-08-27 00:17:00,
2013-08-26 19:20:00,86.3,72.2,30.02,SSW,211,4.0,8.0,63,0.00,,,0.00,VWS V14.00,2013-08-27 00:20:00,
2013-08-26 19:22:00,86.1,72.0,30.02,South,187,6.0,8.0,63,0.00,,,0.00,VWS V14.00,2013-08-27 00:22:00,
2013-08-26 19:25:00,86.0,71.9,30.02,South,187,0.0,8.0,63,0.00,,,0.00,VWS V14.00,2013-08-27 00:25:00,
2013-08-26 19:27:00,85.9,72.3,30.02,South,183,4.0,7.0,64,0.00,,,0.00,VWS V14.00,2013-08-27 00:27:00,
2013-08-26 19:30:00,85.7,72.1,30.02,South,191,4.0,7.0,64,0.00,,,0.00,VWS V14.00,2013-08-27 00:30:00,
2013-08-26 19:32:00,85.6,72.0,30.02,South,187,4.0,7.0,64,0.00,,,0.00,VWS V14.00,2013-08-27 00:32:00,
2013-08-26 19:35:00,85.5,72.4,30.02,South,174,1.0,7.0,65,0.00,,,0.00,VWS V14.00,2013-08-27 00:35:00,
2013-08-26 19:37:00,85.4,72.3,30.02,South,173,0.0,4.0,65,0.00,,,0.00,VWS V14.00,2013-08-27 00:37:00,
2013-08-26 19:40:00,85.3,72.2,30.02,South,175,2.0,6.0,65,0.00,,,0.00,VWS V14.00,2013-08-27 00:40:00,
2013-08-26 19:42:00,85.1,72.5,30.02,South,179,3.0,4.0,66,0.00,,,0.00,VWS V14.00,2013-08-27 00:42:00,
2013-08-26 19:45:00,84.9,72.3,30.02,South,170,4.0,6.0,66,0.00,,,0.00,VWS V14.00,2013-08-27 00:45:00,
2013-08-26 19:47:00,84.8,72.2,30.02,South,169,4.0,6.0,66,0.00,,,0.00,VWS V14.00,2013-08-27 00:47:00,
2013-08-26 19:50:00,84.7,72.1,30.02,South,177,5.0,7.0,66,0.00,,,0.00,VWS V14.00,2013-08-27 00:50:00,
2013-08-26 19:52:00,84.6,72.0,30.02,South,172,5.0,6.0,66,0.00,,,0.00,VWS V14.00,2013-08-27 00:52:00,
2013-08-26 19:55:00,84.4,72.2,30.02,South,176,4.0,6.0,67,0.00,,,0.00,VWS V14.00,2013-08-27 00:55:00,
2013-08-26 19:57:00,84.3,72.2,30.02,South,175,0.0,5.0,67,0.00,,,0.00,VWS V14.00,2013-08-27 00:57:00,
2013-08-26 20:00:00,84.1,72.0,30.02,South,181,4.0,5.0,67,0.00,,,0.00,VWS V14.00,2013-08-27 01:00:00,
2013-08-26 20:02:00,84.0,71.9,30.02,SSE,156,4.0,5.0,67,0.00,,,0.00,VWS V14.00,2013-08-27 01:02:00,
2013-08-26 20:05:00,83.8,72.1,30.02,South,184,2.0,6.0,68,0.00,,,0.00,VWS V14.00,2013-08-27 01:05:00,
2013-08-26 20:07:00,83.7,72.0,30.02,South,185,3.0,6.0,68,0.00,,,0.00,VWS V14.00,2013-08-27 01:07:00,
2013-08-26 20:10:00,83.5,71.8,30.02,South,172,3.0,7.0,68,0.00,,,0.00,VWS V14.00,2013-08-27 01:10:00,
2013-08-26 20:12:00,83.4,71.7,30.02,SSE,166,5.0,6.0,68,0.00,,,0.00,VWS V14.00,2013-08-27 01:12:00,
2013-08-26 20:15:00,83.2,71.6,30.02,South,182,6.0,6.0,68,0.00,,,0.00,VWS V14.00,2013-08-27 01:15:00,
2013-08-26 20:17:00,83.0,71.8,30.02,South,179,3.0,7.0,69,0.00,,,0.00,VWS V14.00,2013-08-27 01:17:00,
2013-08-26 20:20:00,82.9,71.7,30.02,SSE,166,5.0,7.0,69,0.00,,,0.00,VWS V14.00,2013-08-27 01:20:00,
2013-08-26 20:22:00,82.8,71.6,30.02,South,175,7.0,9.0,69,0.00,,,0.00,VWS V14.00,2013-08-27 01:22:00,
2013-08-26 20:25:00,82.7,71.5,30.02,SSE,149,5.0,9.0,69,0.00,,,0.00,VWS V14.00,2013-08-27 01:25:00,
2013-08-26 20:27:00,82.6,71.4,30.02,South,169,8.0,8.0,69,0.00,,,0.00,VWS V14.00,2013-08-27 01:27:00,
2013-08-26 20:30:00,82.5,71.3,30.02,South,185,4.0,8.0,69,0.00,,,0.00,VWS V14.00,2013-08-27 01:30:00,
2013-08-26 20:32:00,82.4,71.2,30.02,SSE,166,5.0,7.0,69,0.00,,,0.00,VWS V14.00,2013-08-27 01:32:00,
2013-08-26 20:35:00,82.3,71.1,30.02,SSE,158,5.0,7.0,69,0.00,,,0.00,VWS V14.00,2013-08-27 01:35:00,
2013-08-26 20:37:00,82.2,71.4,30.02,South,177,5.0,7.0,70,0.00,,,0.00,VWS V14.00,2013-08-27 01:37:00,
2013-08-26 20:40:00,82.1,71.3,30.02,South,187,5.0,7.0,70,0.00,,,0.00,VWS V14.00,2013-08-27 01:40:00,
2013-08-26 20:42:00,82.0,71.3,30.02,South,175,5.0,6.0,70,0.00,,,0.00,VWS V14.00,2013-08-27 01:42:00,
2013-08-26 20:45:00,81.9,71.2,30.02,South,187,3.0,7.0,70,0.00,,,0.00,VWS V14.00,2013-08-27 01:45:00,
2013-08-26 20:47:00,81.8,71.1,30.02,South,179,5.0,6.0,70,0.00,,,0.00,VWS V14.00,2013-08-27 01:47:00,
2013-08-26 20:50:00,81.7,71.0,30.02,South,185,3.0,7.0,70,0.00,,,0.00,VWS V14.00,2013-08-27 01:50:00,
2013-08-26 20:52:00,81.6,71.3,30.02,South,174,4.0,7.0,71,0.00,,,0.00,VWS V14.00,2013-08-27 01:52:00,
2013-08-26 20:55:00,81.5,71.2,30.02,South,178,3.0,7.0,71,0.00,,,0.00,VWS V14.00,2013-08-27 01:55:00,
2013-08-26 20:57:00,81.5,71.2,30.02,South,180,3.0,8.0,71,0.00,,,0.00,VWS V14.00,2013-08-27 01:57:00,
2013-08-26 21:00:00,81.4,71.1,30.02,SSE,162,6.0,8.0,71,0.00,,,0.00,VWS V14.00,2013-08-27 02:00:00,
2013-08-26 21:02:00,81.4,71.1,30.02,South,175,3.0,6.0,71,0.00,,,0.00,VWS V14.00,2013-08-27 02:02:00,
2013-08-26 21:05:00,81.3,71.0,30.02,South,175,4.0,7.0,71,0.00,,,0.00,VWS V14.00,2013-08-27 02:05:00,
2013-08-26 21:07:00,81.3,71.0,30.02,South,176,5.0,9.0,71,0.00,,,0.00,VWS V14.00,2013-08-27 02:07:00,
2013-08-26 21:10:00,81.2,70.9,30.02,SSE,167,5.0,9.0,71,0.00,,,0.00,VWS V14.00,2013-08-27 02:10:00,
2013-08-26 21:12:00,81.2,71.3,30.02,South,180,5.0,8.0,72,0.00,,,0.00,VWS V14.00,2013-08-27 02:12:00,
2013-08-26 21:15:00,81.1,71.2,30.02,SSE,160,4.0,8.0,72,0.00,,,0.00,VWS V14.00,2013-08-27 02:15:00,
2013-08-26 21:17:00,81.1,71.2,30.02,SSW,197,4.0,7.0,72,0.00,,,0.00,VWS V14.00,2013-08-27 02:17:00,
2013-08-26 21:20:00,80.9,71.0,30.02,South,182,3.0,7.0,72,0.00,,,0.00,VWS V14.00,2013-08-27 02:20:00,
2013-08-26 21:22:00,80.9,71.0,30.02,SSE,162,1.0,7.0,72,0.00,,,0.00,VWS V14.00,2013-08-27 02:22:00,
2013-08-26 21:25:00,80.7,71.2,30.02,South,171,4.0,8.0,73,0.00,,,0.00,VWS V14.00,2013-08-27 02:25:00,
2013-08-26 21:27:00,80.6,71.2,30.02,South,171,0.0,8.0,73,0.00,,,0.00,VWS V14.00,2013-08-27 02:27:00,
2013-08-26 21:30:00,80.5,71.1,30.02,South,187,5.0,8.0,73,0.00,,,0.00,VWS V14.00,2013-08-27 02:30:00,
2013-08-26 21:32:00,80.5,71.1,30.02,South,186,5.0,6.0,73,0.00,,,0.00,VWS V14.00,2013-08-27 02:32:00,
2013-08-26 21:35:00,80.4,71.4,30.02,South,186,2.0,7.0,74,0.00,,,0.00,VWS V14.00,2013-08-27 02:35:00,
2013-08-26 21:37:00,80.3,71.3,30.02,SSW,197,3.0,9.0,74,0.00,,,0.00,VWS V14.00,2013-08-27 02:37:00,
2013-08-26 21:40:00,80.3,71.3,30.02,South,188,7.0,9.0,74,0.00,,,0.00,VWS V14.00,2013-08-27 02:40:00,
2013-08-26 21:42:00,80.3,71.3,30.02,South,191,6.0,8.0,74,0.00,,,0.00,VWS V14.00,2013-08-27 02:42:00,
2013-08-26 21:45:00,80.3,71.3,30.02,South,179,5.0,9.0,74,0.00,,,0.00,VWS V14.00,2013-08-27 02:45:00,
2013-08-26 21:50:00,80.2,71.2,30.02,South,180,3.0,7.0,74,0.00,,,0.00,VWS V14.00,2013-08-27 02:50:00,
2013-08-26 21:55:00,80.0,71.0,30.02,South,180,4.0,8.0,74,0.00,,,0.00,VWS V14.00,2013-08-27 02:55:00,
2013-08-26 22:00:00,79.9,71.3,30.01,South,180,3.0,8.0,75,0.00,,,0.00,VWS V14.00,2013-08-27 03:00:00,
2013-08-26 22:05:00,79.7,71.1,30.02,SSW,202,3.0,6.0,75,0.00,,,0.00,VWS V14.00,2013-08-27 03:05:00,
2013-08-26 22:10:00,79.4,71.2,30.02,South,180,3.0,7.0,76,0.00,,,0.00,VWS V14.00,2013-08-27 03:10:00,
2013-08-26 22:15:00,79.3,71.1,30.02,South,180,4.0,8.0,76,0.00,,,0.00,VWS V14.00,2013-08-27 03:15:00,
2013-08-26 22:20:00,79.1,70.9,30.01,South,180,4.0,7.0,76,0.00,,,0.00,VWS V14.00,2013-08-27 03:20:00,
2013-08-26 22:25:00,78.9,70.7,30.01,South,180,4.0,9.0,76,0.00,,,0.00,VWS V14.00,2013-08-27 03:25:00,
2013-08-26 22:30:00,78.8,70.6,30.01,South,180,4.0,8.0,76,0.00,,,0.00,VWS V14.00,2013-08-27 03:30:00,
2013-08-26 22:35:00,78.7,70.5,30.01,South,180,4.0,8.0,76,0.00,,,0.00,VWS V14.00,2013-08-27 03:35:00,
2013-08-26 22:40:00,78.6,70.8,30.01,South,180,4.0,9.0,77,0.00,,,0.00,VWS V14.00,2013-08-27 03:40:00,
2013-08-26 22:45:00,78.5,70.7,30.01,South,180,4.0,8.0,77,0.00,,,0.00,VWS V14.00,2013-08-27 03:45:00,
2013-08-26 22:50:00,78.3,70.5,30.01,SSW,202,3.0,7.0,77,0.00,,,0.00,VWS V14.00,2013-08-27 03:50:00,
2013-08-26 22:55:00,78.2,70.4,30.01,SSW,202,5.0,9.0,77,0.00,,,0.00,VWS V14.00,2013-08-27 03:55:00,
2013-08-26 23:00:00,78.2,70.4,30.01,South,180,4.0,7.0,77,0.00,,,0.00,VWS V14.00,2013-08-27 04:00:00,
2013-08-26 23:05:00,78.0,70.2,30.01,SSW,202,3.0,8.0,77,0.00,,,0.00,VWS V14.00,2013-08-27 04:05:00,
2013-08-26 23:10:00,77.9,70.1,30.01,SSW,202,4.0,7.0,77,0.00,,,0.00,VWS V14.00,2013-08-27 04:10:00,
2013-08-26 23:15:00,77.8,70.4,30.02,SSW,202,3.0,7.0,78,0.00,,,0.00,VWS V14.00,2013-08-27 04:15:00,
2013-08-26 23:20:00,77.7,70.3,30.02,SSW,202,3.0,9.0,78,0.00,,,0.00,VWS V14.00,2013-08-27 04:20:00,
2013-08-26 23:25:00,77.6,70.2,30.02,SSW,202,3.0,8.0,78,0.00,,,0.00,VWS V14.00,2013-08-27 04:25:00,
2013-08-26 23:30:00,77.6,70.2,30.02,SSW,202,3.0,8.0,78,0.00,,,0.00,VWS V14.00,2013-08-27 04:30:00,
2013-08-26 23:35:00,77.5,70.1,30.02,SSW,202,2.0,8.0,78,0.00,,,0.00,VWS V14.00,2013-08-27 04:35:00,
2013-08-26 23:40:00,77.4,70.0,30.02,SSW,202,3.0,6.0,78,0.00,,,0.00,VWS V14.00,2013-08-27 04:40:00,
2013-08-26 23:45:00,77.3,69.9,30.01,SSW,202,3.0,5.0,78,0.00,,,0.00,VWS V14.00,2013-08-27 04:45:00,
2013-08-26 23:50:00,77.1,69.7,30.02,SSW,202,3.0,7.0,78,0.00,,,0.00,VWS V14.00,2013-08-27 04:50:00,
2013-08-26 23:55:00,77.0,69.6,30.01,SSW,202,3.0,9.0,78,0.00,,,0.00,VWS V14.00,2013-08-27 04:55:00,